• In Hungary
  • List of Countries
  • For 7 days
  • Water Temperature
  • Satellite Maps
  • Weather Map
  • News
  • Weather Widgets
  • user-avatar
    Login

    Hourly Weather Puerto Barrios

    Today, 23 February, Friday

    Time Temperature Precipitation Wind Pressure Humidity
    00:00 +22°C° 1.1 mm 3 mps 754 mmHg 95%
    01:00 +22°C° 0.8 mm 3 mps 754 mmHg 95%
    02:00 +22°C° 0.8 mm 3 mps 754 mmHg 95%
    03:00 +22°C° 0.8 mm 3 mps 754 mmHg 95%
    04:00 +23°C° 0.1 mm 2 mps 754 mmHg 96%
    05:00 +23°C° 0.1 mm 2 mps 754 mmHg 96%
    06:00 +22°C° 0.1 mm 1 mps 754 mmHg 97%
    07:00 +24°C° 0 mm 1 mps 755 mmHg 90%
    08:00 +26°C° 0 mm 1 mps 755 mmHg 82%
    09:00 +27°C° 0 mm 1 mps 755 mmHg 75%
    10:00 +29°C° 0 mm 1 mps 755 mmHg 68%
    11:00 +30°C° 0 mm 2 mps 755 mmHg 60%
    12:00 +32°C° 0 mm 2 mps 755 mmHg 52%
    13:00 +31°C° 0.1 mm 2 mps 754 mmHg 56%
    14:00 +31°C° 0.1 mm 3 mps 753 mmHg 59%
    15:00 +30°C° 0.1 mm 4 mps 752 mmHg 63%
    16:00 +29°C° 0.1 mm 3 mps 752 mmHg 69%
    17:00 +27°C° 0.1 mm 3 mps 752 mmHg 76%
    18:00 +26°C° 0.1 mm 3 mps 753 mmHg 82%
    19:00 +25°C° 0.1 mm 3 mps 753 mmHg 85%
    20:00 +24°C° 0.1 mm 2 mps 753 mmHg 88%
    21:00 +24°C° 0.1 mm 2 mps 754 mmHg 92%
    22:00 +24°C° 0.5 mm 2 mps 754 mmHg 93%
    23:00 +23°C° 0.5 mm 2 mps 754 mmHg 94%

    Tomorrow, 24 February, Saturday

    Time Temperature Precipitation Wind Pressure Humidity
    00:00 +23°C° 0.5 mm 2 mps 754 mmHg 95%
    01:00 +23°C° 0.6 mm 2 mps 753 mmHg 95%
    02:00 +23°C° 0.6 mm 1 mps 753 mmHg 96%
    03:00 +23°C° 0.6 mm 1 mps 752 mmHg 96%
    04:00 +23°C° 0.1 mm 1 mps 752 mmHg 96%
    05:00 +23°C° 0.1 mm 1 mps 753 mmHg 97%
    06:00 +22°C° 0.1 mm 1 mps 753 mmHg 97%
    07:00 +24°C° 0 mm 1 mps 753 mmHg 89%
    08:00 +26°C° 0 mm 1 mps 753 mmHg 81%
    09:00 +26°C° 0 mm 0 mps 754 mmHg 72%
    10:00 +30°C° 0 mm 1 mps 753 mmHg 64%
    11:00 +31°C° 0 mm 1 mps 753 mmHg 56%
    12:00 +34°C° 0 mm 2 mps 752 mmHg 48%
    13:00 +34°C° 0 mm 2 mps 751 mmHg 49%
    14:00 +33°C° 0 mm 3 mps 750 mmHg 49%
    15:00 +33°C° 0 mm 3 mps 749 mmHg 50%
    16:00 +30°C° 0 mm 3 mps 750 mmHg 59%
    17:00 +28°C° 0 mm 3 mps 750 mmHg 67%
    18:00 +26°C° 0 mm 3 mps 750 mmHg 76%
    19:00 +25°C° 0 mm 3 mps 751 mmHg 81%
    20:00 +25°C° 0 mm 3 mps 752 mmHg 86%
    21:00 +24°C° 0 mm 3 mps 752 mmHg 90%
    22:00 +23°C° 0.2 mm 2 mps 752 mmHg 92%
    23:00 +23°C° 0.2 mm 2 mps 752 mmHg 93%

    Day after tomorrow, 25 February, Sunday

    Time Temperature Precipitation Wind Pressure Humidity
    00:00 +23°C° 0.2 mm 2 mps 752 mmHg 94%
    01:00 +23°C° 0.1 mm 2 mps 752 mmHg 94%
    02:00 +23°C° 0.1 mm 1 mps 752 mmHg 94%
    03:00 +23°C° 0.1 mm 1 mps 751 mmHg 95%
    04:00 +23°C° 0 mm 1 mps 752 mmHg 95%
    05:00 +23°C° 0 mm 1 mps 752 mmHg 95%
    06:00 +23°C° 0 mm 1 mps 752 mmHg 94%
    07:00 +25°C° 0 mm 1 mps 752 mmHg 85%
    08:00 +27°C° 0 mm 1 mps 753 mmHg 76%
    09:00 +29°C° 0 mm 1 mps 753 mmHg 67%
    10:00 +30°C° 0 mm 1 mps 753 mmHg 59%
    11:00 +32°C° 0 mm 1 mps 752 mmHg 52%
    12:00 +34°C° 0 mm 1 mps 751 mmHg 45%
    13:00 +34°C° 0 mm 2 mps 751 mmHg 46%
    14:00 +34°C° 0 mm 3 mps 750 mmHg 48%
    15:00 +34°C° 0 mm 4 mps 749 mmHg 49%
    16:00 +32°C° 0 mm 4 mps 750 mmHg 58%
    17:00 +29°C° 0 mm 4 mps 750 mmHg 67%
    18:00 +27°C° 0 mm 3 mps 750 mmHg 76%
    19:00 +25°C° 0 mm 3 mps 751 mmHg 81%
    20:00 +24°C° 0 mm 3 mps 752 mmHg 86%
    21:00 +23°C° 0 mm 2 mps 753 mmHg 90%
    22:00 +23°C° 0 mm 2 mps 753 mmHg 92%
    23:00 +23°C° 0 mm 2 mps 753 mmHg 93%

    26 February, Monday

    Time Temperature Precipitation Wind Pressure Humidity
    00:00 +23°C° 0 mm 2 mps 753 mmHg 94%
    01:00 +23°C° 0.1 mm 1 mps 752 mmHg 94%
    02:00 +23°C° 0.1 mm 1 mps 752 mmHg 94%
    03:00 +23°C° 0.1 mm 1 mps 752 mmHg 95%
    04:00 +23°C° 0 mm 1 mps 752 mmHg 95%
    05:00 +22°C° 0 mm 1 mps 753 mmHg 95%
    06:00 +22°C° 0 mm 1 mps 753 mmHg 95%
    07:00 +24°C° 0 mm 1 mps 754 mmHg 86%
    08:00 +26°C° 0 mm 1 mps 754 mmHg 78%
    09:00 +28°C° 0 mm 1 mps 754 mmHg 69%
    10:00 +30°C° 0 mm 1 mps 754 mmHg 61%
    11:00 +32°C° 0 mm 1 mps 753 mmHg 52%
    12:00 +33°C° 0 mm 1 mps 753 mmHg 43%
    13:00 +34°C° 0 mm 2 mps 752 mmHg 44%
    14:00 +34°C° 0 mm 3 mps 751 mmHg 45%
    15:00 +34°C° 0 mm 4 mps 750 mmHg 45%
    16:00 +32°C° 0 mm 4 mps 751 mmHg 55%
    17:00 +29°C° 0 mm 4 mps 751 mmHg 64%
    18:00 +27°C° 0 mm 4 mps 752 mmHg 74%
    19:00 +26°C° 0 mm 4 mps 752 mmHg 80%
    20:00 +25°C° 0 mm 3 mps 753 mmHg 86%
    21:00 +24°C° 0 mm 3 mps 754 mmHg 92%
    22:00 +22°C° 0 mm 3 mps 754 mmHg 93%
    23:00 +22°C° 0 mm 3 mps 754 mmHg 94%

    27 February, Tuesday

    Time Temperature Precipitation Wind Pressure Humidity
    00:00 +22°C° 0 mm 3 mps 753 mmHg 95%
    01:00 +22°C° 0.3 mm 3 mps 753 mmHg 95%
    02:00 +23°C° 0.3 mm 2 mps 753 mmHg 95%
    03:00 +23°C° 0.3 mm 2 mps 753 mmHg 95%
    04:00 +23°C° 0.3 mm 2 mps 753 mmHg 95%
    05:00 +23°C° 0.3 mm 2 mps 753 mmHg 95%
    06:00 +23°C° 0.3 mm 2 mps 754 mmHg 95%
    07:00 +24°C° 0.3 mm 1 mps 754 mmHg 87%
    08:00 +26°C° 0.3 mm 1 mps 754 mmHg 80%
    09:00 +28°C° 0.3 mm 1 mps 755 mmHg 73%
    10:00 +29°C° 0 mm 1 mps 754 mmHg 65%
    11:00 +30°C° 0 mm 2 mps 753 mmHg 57%
    12:00 +32°C° 0 mm 2 mps 753 mmHg 50%
    13:00 +32°C° 0 mm 2 mps 752 mmHg 51%
    14:00 +31°C° 0 mm 3 mps 751 mmHg 51%
    15:00 +31°C° 0 mm 3 mps 751 mmHg 52%
    16:00 +30°C° 0 mm 3 mps 751 mmHg 60%
    17:00 +28°C° 0 mm 3 mps 751 mmHg 69%
    18:00 +26°C° 0 mm 3 mps 751 mmHg 77%
    19:00 +25°C° 0.1 mm 3 mps 752 mmHg 82%
    20:00 +24°C° 0.1 mm 2 mps 752 mmHg 87%
    21:00 +23°C° 0.1 mm 2 mps 753 mmHg 92%
    22:00 +23°C° 0.1 mm 2 mps 753 mmHg 93%
    23:00 +23°C° 0.1 mm 2 mps 753 mmHg 94%

    28 February, Wednesday

    Time Temperature Precipitation Wind Pressure Humidity
    00:00 +23°C° 0.1 mm 2 mps 752 mmHg 95%
    01:00 +23°C° 0.1 mm 2 mps 752 mmHg 96%
    02:00 +22°C° 0.1 mm 1 mps 752 mmHg 96%
    03:00 +22°C° 0.1 mm 1 mps 751 mmHg 97%
    04:00 +22°C° 0 mm 1 mps 752 mmHg 97%
    05:00 +22°C° 0 mm 1 mps 752 mmHg 97%
    06:00 +22°C° 0 mm 1 mps 752 mmHg 97%
    07:00 +24°C° 0 mm 1 mps 752 mmHg 87%
    08:00 +26°C° 0 mm 1 mps 752 mmHg 78%
    09:00 +28°C° 0 mm 1 mps 753 mmHg 68%
    10:00 +30°C° 0 mm 1 mps 752 mmHg 60%
    11:00 +32°C° 0 mm 1 mps 751 mmHg 53%
    12:00 +33°C° 0 mm 1 mps 751 mmHg 46%
    13:00 +34°C° 0 mm 2 mps 750 mmHg 46%
    14:00 +34°C° 0 mm 3 mps 749 mmHg 45%
    15:00 +34°C° 0 mm 3 mps 748 mmHg 45%
    16:00 +31°C° 0 mm 3 mps 748 mmHg 54%
    17:00 +29°C° 0 mm 3 mps 749 mmHg 64%
    18:00 +27°C° 0 mm 3 mps 749 mmHg 73%
    19:00 +26°C° 0 mm 3 mps 749 mmHg 79%
    20:00 +25°C° 0 mm 3 mps 750 mmHg 84%
    21:00 +24°C° 0 mm 3 mps 751 mmHg 90%
    22:00 +22°C° 0 mm 3 mps 751 mmHg 91%
    23:00 +23°C° 0 mm 2 mps 751 mmHg 92%
    Show more